RAINCUBE (43548 NORAD) Tracking and Keplerian Element Data

This shows tracking and keplerian element data for the satellite.

Feedback or suggestion? Click here.




ElementValue
Catalog43548
NameRAINCUBE
Epoch Orbit5680
Epoch Day193.53257699
Epoch Year2019
RAAN222.5179
Inclination51.6354
Eccentricity0.0004592
Argument of Perigee227.0613
Mean Anonmoly132.9997
Mean Motion15.61834018
Decay Rate8.883E-05
L11 43548U 98067NW 19193.53257699 .00008883 00000-0 10627-3 0 9999
L22 43548 51.6354 222.5179 0004592 227.0613 132.9997 15.61834018 56805

Live tracking and technical data element details for RAINCUBE (NORAD 43548). RAINCUBE can be tracked NOW for your location showing map with azimuth and elevation plus other details from your city location.

Track the satellite on the map from your city or location and see movement details for azimuth, elevation, latitude, longitude, range, height, and movement on the map or in text.







IsCatalogInMostPopularTable: catalog: 43548, numindb: 200
Update: records affected: 1



GetName: 43548 RAINCUBE

Hit Count: updated at: Mon, 15 Jul 2019 22:56:04 GMT